Location: Ahstedt
(52.2048°N, 10.1060°E)
Time: 23:46:45
(UTC+00:00)

Cosmos 2344 - Pass Details

Date: 18 January 2026
Orbit: 1195 x 3047 km, 63.3° (Epoch: 18 February)

Event Time Altitude Azimuth Distance (km) Brightness Sun altitude
Exits shadow 03:29:58 37° 353° (N) 1,819 4.3 -34.3°
Maximum altitude 03:30:03 37° 355° (N) 1,821 4.3 -34.3°
Drops below altitude 10° 03:37:24 10° 61° (ENE) 3,488 6.6 -33.2°
Sets 03:40:54 0° 70° (ENE) 4,666 7.6 -32.7°
